Weather History for Juneau, WI

Change the Weather History Date:

Saturday, May 31, 2014

  Actual Average Record
Temperature  
Mean Temperature 70 °F -  
Max Temperature 85 °F 66 °F 90 °F (1988)
Min Temperature 55 °F 49 °F 32 °F (2005)
Cooling Degree Days 4    
Growing Degree Days 20 (Base 50)    
Moisture  
Dew Point 46 °F    
Average Humidity 44    
Maximum Humidity 76    
Minimum Humidity 20    
Precipitation  
Precipitation 0.00 in - - ()
Sea Level Pressure  
Sea Level Pressure 30.15 in    
Wind  
Wind Speed 8 mph (SE)    
Max Wind Speed 14 mph    
Max Gust Speed 22 mph    
Visibility 10 miles    
Events      
Averages and records for this station are not official NWS values.
T = Trace of Precipitation, MM = Missing Value Source: NWS Daily Summary

Daily Weather History Graph

Daily Weather History Graph

Search for Another Location

Airport:

Trip Planner

Search our weather history database for the weather conditions in past years. The results will help you decide how hot, cold, wet, or windy it might be!

Date:

Astronomy

May. 31, 2014 Rise Set
Actual Time 5:17 AM CDT 8:27 PM CDT
Civil Twilight 4:42 AM CDT 9:02 PM CDT
Nautical Twilight 3:58 AM CDT 9:47 PM CDT
Astronomical Twilight 3:04 AM CDT 10:42 PM CDT
Moon 7:56 AM CDT (5/31) 10:43 PM CDT (5/31)
Length of Visible Light 16h 20m
Length of Day
15h 10m
Waxing Crescent, 8% of the Moon is Illuminated
May 31
Waxing Crescent
Jun 5
First Quarter
Jun 12
Full
Jun 19
Last Quarter
Jun 27
New

Hourly Weather History & Observations

Time (CDT) Temp. Dew Point Humidity Pressure Visibility Wind Dir Wind Speed Gust Speed Precip Events Conditions
12:15 AM 61.0 °F 44.6 °F 55% 30.20 in 10.0 mi East 4.6 mph - N/A   Clear
12:35 AM 60.3 °F 44.2 °F 55% 30.20 in 10.0 mi East 5.8 mph - N/A   Clear
1:15 AM 59.0 °F 43.5 °F 56% 30.20 in 10.0 mi East 6.9 mph - N/A   Clear
1:35 AM 58.6 °F 44.1 °F 58% 30.21 in 10.0 mi East 6.9 mph - N/A   Clear
1:55 AM 58.3 °F 44.2 °F 60% 30.20 in 10.0 mi East 8.1 mph - N/A   Clear
2:15 AM 57.9 °F 44.6 °F 61% 30.20 in 10.0 mi East 5.8 mph - N/A   Clear
2:35 AM 58.1 °F 44.6 °F 61% 30.20 in 10.0 mi East 5.8 mph - N/A   Clear
2:55 AM 57.4 °F 45.0 °F 63% 30.20 in 10.0 mi ESE 4.6 mph - N/A   Clear
3:15 AM 57.2 °F 45.5 °F 65% 30.20 in 10.0 mi East 5.8 mph - N/A   Clear
3:35 AM 57.0 °F 46.4 °F 68% 30.19 in 10.0 mi ESE 5.8 mph - N/A   Clear
3:55 AM 55.4 °F 46.4 °F 72% 30.20 in 10.0 mi East 4.6 mph - N/A   Clear
4:15 AM 56.3 °F 48.2 °F 74% 30.20 in 10.0 mi East 3.5 mph - N/A   Clear
4:35 AM 55.9 °F 48.6 °F 76% 30.20 in 10.0 mi East 4.6 mph - N/A   Clear
4:55 AM 56.3 °F 48.6 °F 75% 30.20 in 10.0 mi East 3.5 mph - N/A   Clear
5:15 AM 56.8 °F 48.2 °F 73% 30.21 in 10.0 mi SE 3.5 mph - N/A   Clear
5:35 AM 56.3 °F 48.2 °F 74% 30.21 in 10.0 mi Calm Calm - N/A   Clear
5:55 AM 56.5 °F 48.0 °F 73% 30.21 in 10.0 mi Calm Calm - N/A   Clear
6:15 AM 58.5 °F 48.7 °F 70% 30.21 in 10.0 mi SE 4.6 mph - N/A   Clear
6:35 AM 60.1 °F 50.0 °F 69% 30.21 in 10.0 mi ESE 4.6 mph - N/A   Clear
6:55 AM 62.8 °F 48.7 °F 60% 30.21 in 10.0 mi ESE 6.9 mph - N/A   Clear
7:15 AM 64.4 °F 48.2 °F 56% 30.21 in 10.0 mi SE 8.1 mph - N/A   Clear
7:35 AM 66.2 °F 48.2 °F 52% 30.21 in 10.0 mi SE 8.1 mph - N/A   Clear
7:55 AM 67.8 °F 48.9 °F 51% 30.20 in 10.0 mi SE 9.2 mph - N/A   Clear
8:15 AM 70.2 °F 49.6 °F 48% 30.20 in 10.0 mi SE 9.2 mph - N/A   Clear
8:35 AM 72.3 °F 49.8 °F 45% 30.19 in 10.0 mi SE 12.7 mph - N/A   Clear
8:55 AM 72.9 °F 49.8 °F 44% 30.19 in 10.0 mi SSE 11.5 mph - N/A   Clear
9:15 AM 72.5 °F 50.5 °F 46% 30.19 in 10.0 mi SSE 8.1 mph - N/A   Clear
9:35 AM 73.6 °F 50.5 °F 44% 30.19 in 10.0 mi SSE 9.2 mph - N/A   Clear
9:55 AM 77.0 °F 51.3 °F 40% 30.19 in 10.0 mi South 8.1 mph - N/A   Clear
10:15 AM 77.2 °F 49.3 °F 37% 30.19 in 10.0 mi South 10.4 mph - N/A   Clear
10:35 AM 77.9 °F 49.3 °F 37% 30.19 in 10.0 mi SSE 10.4 mph - N/A   Clear
10:55 AM 78.8 °F 48.4 °F 34% 30.19 in 10.0 mi SSE 8.1 mph 16.1 mph N/A   Clear
11:15 AM 79.3 °F 47.5 °F 33% 30.19 in 10.0 mi SSE 13.8 mph 17.3 mph N/A   Clear
11:35 AM 79.9 °F 47.3 °F 32% 30.19 in 10.0 mi South 13.8 mph - N/A   Clear
11:55 AM 80.1 °F 46.4 °F 31% 30.18 in 10.0 mi SSE 12.7 mph 16.1 mph N/A   Clear
12:15 PM 81.0 °F 47.7 °F 31% 30.17 in 10.0 mi SSE 12.7 mph - N/A   Clear
12:35 PM 81.5 °F 45.1 °F 28% 30.17 in 10.0 mi South 13.8 mph 18.4 mph N/A   Clear
12:55 PM 81.7 °F 45.5 °F 28% 30.16 in 10.0 mi SSE 9.2 mph 16.1 mph N/A   Clear
1:15 PM 82.0 °F 44.6 °F 27% 30.15 in 10.0 mi SE 12.7 mph 21.9 mph N/A   Clear
1:35 PM 82.8 °F 41.7 °F 23% 30.15 in 10.0 mi SSE 12.7 mph 20.7 mph N/A   Clear
1:55 PM 83.3 °F 41.4 °F 23% 30.15 in 10.0 mi SSE 13.8 mph - N/A   Clear
2:15 PM 83.5 °F 42.1 °F 23% 30.13 in 10.0 mi South 12.7 mph 17.3 mph N/A   Clear
2:35 PM 82.6 °F 43.5 °F 25% 30.13 in 10.0 mi SSE 10.4 mph - N/A   Clear
2:55 PM 83.5 °F 43.7 °F 25% 30.12 in 10.0 mi SSE 6.9 mph 19.6 mph N/A   Clear
3:15 PM 83.7 °F 43.7 °F 24% 30.11 in 10.0 mi SSE 12.7 mph 18.4 mph N/A   Clear
3:35 PM 84.4 °F 45.1 °F 25% 30.10 in 10.0 mi SSE 11.5 mph 19.6 mph N/A   Clear
3:55 PM 83.7 °F 45.9 °F 27% 30.09 in 10.0 mi South 9.2 mph - N/A   Clear
4:15 PM 84.6 °F 44.4 °F 24% 30.09 in 10.0 mi SSE 12.7 mph - N/A   Clear
4:35 PM 84.2 °F 42.6 °F 23% 30.08 in 10.0 mi SE 10.4 mph - N/A   Clear
4:55 PM 84.4 °F 43.5 °F 24% 30.07 in 10.0 mi SSE 10.4 mph 17.3 mph N/A   Clear
5:15 PM 84.6 °F 43.0 °F 23% 30.07 in 10.0 mi SE 10.4 mph - N/A   Clear
5:35 PM 84.2 °F 41.0 °F 22% 30.06 in 10.0 mi SSE 13.8 mph 19.6 mph N/A   Clear
5:55 PM 84.2 °F 40.6 °F 21% 30.06 in 10.0 mi SSE 11.5 mph - N/A   Clear
6:15 PM 84.2 °F 39.0 °F 20% 30.06 in 10.0 mi SE 12.7 mph 17.3 mph N/A   Clear
6:35 PM 83.7 °F 38.3 °F 20% 30.06 in 10.0 mi SE 13.8 mph 17.3 mph N/A   Clear
7:15 PM 80.4 °F 46.2 °F 30% 30.06 in 10.0 mi ESE 12.7 mph - N/A   Clear
7:35 PM 78.8 °F 47.1 °F 33% 30.07 in 10.0 mi ESE 11.5 mph - N/A   Clear
8:15 PM 74.7 °F 48.9 °F 40% 30.07 in 10.0 mi ESE 8.1 mph - N/A   Clear
8:35 PM 73.4 °F 49.6 °F 43% 30.06 in 10.0 mi ESE 5.8 mph - N/A   Clear
8:55 PM 72.5 °F 50.0 °F 45% 30.06 in 10.0 mi ESE 8.1 mph - N/A   Clear
9:15 PM 71.6 °F 49.5 °F 45% 30.06 in 10.0 mi ESE 9.2 mph - N/A   Clear
9:35 PM 70.9 °F 48.9 °F 46% 30.06 in 10.0 mi ESE 9.2 mph - N/A   Clear
9:55 PM 70.3 °F 48.4 °F 46% 30.07 in 10.0 mi ESE 9.2 mph - N/A   Clear
10:15 PM 70.7 °F 46.8 °F 42% 30.07 in 10.0 mi SE 10.4 mph - N/A   Clear
10:35 PM 70.2 °F 46.6 °F 43% 30.06 in 10.0 mi SE 10.4 mph - N/A   Clear
10:55 PM 69.3 °F 46.6 °F 44% 30.06 in 10.0 mi SE 10.4 mph - N/A   Clear
11:15 PM 68.9 °F 46.6 °F 45% 30.06 in 10.0 mi SE 11.5 mph - N/A   Clear
11:35 PM 68.2 °F 46.8 °F 46% 30.07 in 10.0 mi SE 11.5 mph - N/A   Clear